Regional Weather Roundup
Issued by NWS Sioux Falls, SD

Home | Current Version | Previous Version | Text Only | Print | Product List | Glossary On
Versions: 1 2 3 4 5 6 7 8 9 10 11 12 13 14 15 16 17 18 19 20 21 22 23 24 25 26 27 28 29 30 31 32 33 34 35 36 37 38 39 40 41 42 43 44 45 46 47 48 49 50
000
ASUS43 KFSD 300402
RWRFSD

WEATHER ROUNDUP FOR SE SOUTH DAKOTA/SW MINNESOTA/NW IOWA
NATIONAL WEATHER SERVICE SIOUX FALLS SD
1100 PM CDT MON SEP 29 2014

NOTE: "FAIR" INDICATES FEW OR NO CLOUDS BELOW 12,000 FEET WITH NO
SIGNIFICANT WEATHER AND OR OBSTRUCTIONS TO VISIBILITY.


SDZ038>040-050-052>070-300500-
SOUTHEAST SOUTH DAKOTA

CITY           SKY/WX    TMP DP  RH WIND       PRES   REMARKS
CHAMBERLAIN    PTCLDY    60  56  88 SE14G20   29.89F
HURON          PTCLDY    57  50  77 E14       29.95R
MADISON        FAIR      52  52 100 E10G17    30.00S
MITCHELL       CLEAR     61  55  81 E13       29.95R
SIOUX FALLS    PTCLDY    56  51  84 E12       30.00R
WINNER         CLOUDY    65  60  84 E17       29.85F
YANKTON        PTCLDY    61  57  88 E13       29.96S
$$

MNZ071-072-080-081-089-090-097-098-300500-
SOUTHWEST MINNESOTA

CITY           SKY/WX    TMP DP  RH WIND       PRES   REMARKS
FAIRMONT       CLEAR     52  45  76 NE6       30.05S
JACKSON        CLEAR     52  46  82 E8        30.05F
LUVERNE        CLEAR     55  50  82 E9        30.02S
MARSHALL       PTCLDY    52  45  76 E10       30.04F
MONTEVIDEO     CLEAR     48  46  93 SE8       30.08S
PIPESTONE      CLEAR     52  48  87 E15G21    30.02S
REDWOOD FALLS  CLEAR     50  46  86 E8        30.07S
TRACY          CLEAR     51  48  90 E7        30.05F
WINDOM         CLEAR     52  48  87 E8        30.05S
WORTHINGTON    CLEAR     52  48  87 E9        30.05S
$$

IAZ001>003-012>014-020>022-031-032-NEZ013-014-SDZ071-300500-
NORTHWEST IOWA

CITY           SKY/WX    TMP DP  RH WIND       PRES   REMARKS
CHEROKEE       CLEAR     58  56  92 NE8       30.01R
DENISON        CLOUDY    61  61 100 E9G16     29.97S
ESTHERVILLE    CLEAR     51  49  92 E9        30.04S
LE MARS          N/A     61  57  88 E8        29.99R
ORANGE CITY    CLEAR     61  55  82 E9G16     29.99S
SHELDON        PTCLDY    55  52  88 E9G18     30.00S
SIOUX CITY     CLOUDY    63  59  87 E9        29.98R
SPENCER        CLEAR     55  50  83 E13       30.03S
STORM LAKE     CLEAR     57  57 100 E9        30.01S
$$

ABBREVIATIONS USED IN REMARKS
   TC - TEMPERATURE IN CELSIUS
  WCI - WIND CHILL INDEX
   HX - HEAT INDEX
  VSB - VISIBILITY




USA.gov is the U.S. government's official web portal to all federal, state and local government web resources and services.